LKKB Weather Reports


Display with metric or nautical units.
time (UTC)temp
F
wind
direction
speed
MPH
gust
MPH
rain 1hr
in
rain 24hr
in
rain mn
in
humidity
%
barometer
mb
20260906113103 64 290 12.0 0.0 0.00 0.00 0.00 48 1027.0
20260906111852 64 280 12.0 0.0 0.00 0.00 0.00 45
20260906110210 64 270 13.0 0.0 0.00 0.00 0.00 48 1027.0
20260906103102 63 310 6.0 0.0 0.00 0.00 0.00 55 1028.0
20260906102253 63 260 5.0 0.0 0.00 0.00 0.00 51
20260906093103 61 270 9.0 0.0 0.00 0.00 0.00 59 1028.0
20260906091851 61 290 9.0 0.0 0.00 0.00 0.00 55
20260906083103 61 280 9.0 0.0 0.00 0.00 0.00 59 1028.0
20260906081853 61 270 9.0 0.0 0.00 0.00 0.00 59
20260906080103 61 280 9.0 0.0 0.00 0.00 0.00 59 1027.0
20260906073103 59 290 10.0 0.0 0.00 0.00 0.00 67 1027.0
20260906072153 59 290 9.0 0.0 0.00 0.00 0.00 62
20260906063103 57 280 9.0 0.0 0.00 0.00 0.00 71 1026.0
20260906061852 57 270 7.0 0.0 0.00 0.00 0.00 67
20260906060103 57 270 8.0 0.0 0.00 0.00 0.00 71 1026.0
20260906053103 54 250 7.0 0.0 0.00 0.00 0.00 81 1026.0
20260906051850 55 240 7.0 0.0 0.00 0.00 0.00 71
20260906043102 54 250 7.0 0.0 0.00 0.00 0.00 81 1025.0
20260906042253 55 240 5.0 0.0 0.00 0.00 0.00 71
20260906040104 52 240 6.0 0.0 0.00 0.00 0.00 81 1025.0
20260906033103 54 250 6.0 0.0 0.00 0.00 0.00 81 1025.0
20260906031850 55 240 7.0 0.0 0.00 0.00 0.00 71
20260906023103 55 260 5.0 0.0 0.00 0.00 0.00 71 1025.0
20260906021850 57 260 5.0 0.0 0.00 0.00 0.00 67
20260906013103 57 280 7.0 0.0 0.00 0.00 0.00 67 1024.0
20260906012151 59 270 7.0 0.0 0.00 0.00 0.00 62
20260906010104 57 260 6.0 0.0 0.00 0.00 0.00 67 1024.0
20260906003103 59 260 6.0 0.0 0.00 0.00 0.00 62 1024.0
20260906001851 59 280 5.0 0.0 0.00 0.00 0.00 62
20260905233103 59 270 7.0 0.0 0.00 0.00 0.00 62 1024.0
20260905231834 61 270 9.0 0.0 0.00 0.00 0.00 59
20260905230103 61 270 8.0 0.0 0.00 0.00 0.00 59 1024.0
20260905223103 61 260 8.0 0.0 0.00 0.00 0.00 59 1023.0
20260905222254 61 280 12.0 0.0 0.00 0.00 0.00 55
20260905213102 63 270 9.0 0.0 0.00 0.00 0.00 55 1023.0
20260905211849 63 270 9.0 0.0 0.00 0.00 0.00 51
20260905210127 63 270 9.0 0.0 0.00 0.00 0.00 55 1023.0
20260905210031 63 270 7.0 0.0 0.00 0.00 0.00 55 1022.0
20260905205109 63 270 7.0 0.0 0.00 0.00 0.00 55 1022.0
20260905204709 63 270 7.0 0.0 0.00 0.00 0.00 55 1022.0
20260905204110 63 270 7.0 0.0 0.00 0.00 0.00 55 1022.0
20260905203210 63 270 7.0 0.0 0.00 0.00 0.00 55 1022.0
20260905201851 64 270 9.0 0.0 0.00 0.00 0.00 48
20260905200910 64 270 9.0 0.0 0.00 0.00 0.00 52 1022.0
20260905200311 64 270 9.0 0.0 0.00 0.00 0.00 52 1022.0
20260905195910 64 280 14.0 0.0 0.00 0.00 0.00 52 1022.0
20260905195210 64 280 14.0 0.0 0.00 0.00 0.00 52 1022.0
20260905194110 64 280 14.0 0.0 0.00 0.00 0.00 52 1022.0
20260905193416 64 280 14.0 0.0 0.00 0.00 0.00 52 1022.0
20260905193210 64 280 14.0 0.0 0.00 0.00 0.00 52 1022.0
20260905192711 66 280 13.0 0.0 0.00 0.00 0.00 48 1021.0
20260905192322 64 280 14.0 0.0 0.00 0.00 0.00 48
20260905192117 66 280 13.0 0.0 0.00 0.00 0.00 48 1021.0
20260905191610 66 280 13.0 0.0 0.00 0.00 0.00 48 1021.0
20260905181909 66 280 9.0 0.0 0.00 0.00 0.00 48
20260905181309 66 280 9.0 0.0 0.00 0.00 0.00 48 1021.0
20260905181109 66 280 9.0 0.0 0.00 0.00 0.00 48 1021.0
20260905180710 66 280 9.0 0.0 0.00 0.00 0.00 48 1021.0
20260905180312 66 280 9.0 0.0 0.00 0.00 0.00 48 1021.0
20260905180110 66 280 9.0 0.0 0.00 0.00 0.00 48 1021.0
20260905175410 70 290 12.0 0.0 0.00 0.00 0.00 40 1020.0
20260905175209 70 290 12.0 0.0 0.00 0.00 0.00 40 1020.0
20260905174710 70 290 12.0 0.0 0.00 0.00 0.00 40 1020.0
20260905174110 70 290 12.0 0.0 0.00 0.00 0.00 40 1020.0
20260905173417 70 290 12.0 0.0 0.00 0.00 0.00 40 1020.0
20260905172710 70 290 14.0 0.0 0.00 0.00 0.00 40 1020.0
20260905172117 70 290 14.0 0.0 0.00 0.00 0.00 40 1020.0
20260905171909 70 290 14.0 0.0 0.00 0.00 0.00 40
20260905171532 70 290 14.0 0.0 0.00 0.00 0.00 40 1020.0
20260905170524 70 290 14.0 0.0 0.00 0.00 0.00 40 1020.0
20260905163810 70 300 13.0 0.0 0.00 0.00 0.00 43 1019.0
20260905163102 70 300 13.0 0.0 0.00 0.00 0.00 43 1019.0
20260905162909 72 290 13.0 0.0 0.00 0.00 0.00 40 1019.0
20260905162334 72 300 14.0 0.0 0.00 0.00 0.00 37
20260905162210 72 290 13.0 0.0 0.00 0.00 0.00 40 1019.0
20260905161610 72 290 13.0 0.0 0.00 0.00 0.00 40 1019.0
20260905161110 72 290 13.0 0.0 0.00 0.00 0.00 40 1019.0
20260905160810 72 290 13.0 0.0 0.00 0.00 0.00 40 1019.0
20260905160311 72 290 13.0 0.0 0.00 0.00 0.00 40 1019.0
20260905154710 72 300 13.0 0.0 0.00 0.00 0.00 40 1019.0
20260905154531 72 300 13.0 0.0 0.00 0.00 0.00 40 1019.0
20260905154210 72 300 13.0 0.0 0.00 0.00 0.00 40 1019.0
20260905151814 70 300 13.0 0.0 0.00 0.00 0.00 43 1019.0
20260905151800 72 310 12.0 0.0 0.00 0.00 0.00 40
20260905151111 70 300 13.0 0.0 0.00 0.00 0.00 43 1019.0
20260905150609 70 300 13.0 0.0 0.00 0.00 0.00 43 1019.0
20260905145909 72 300 13.0 0.0 0.00 0.00 0.00 43 1019.0
20260905145610 72 300 13.0 0.0 0.00 0.00 0.00 43 1019.0
20260905145109 72 300 13.0 0.0 0.00 0.00 0.00 43 1019.0
20260905144209 72 300 13.0 0.0 0.00 0.00 0.00 43 1019.0
20260905143710 72 300 13.0 0.0 0.00 0.00 0.00 43 1019.0
20260905142117 72 280 17.0 0.0 0.00 0.00 0.00 40 1019.0
20260905141801 72 300 14.0 0.0 0.00 0.00 0.00 37
20260905140422 72 280 17.0 0.0 0.00 0.00 0.00 40 1019.0
20260905140110 72 280 17.0 0.0 0.00 0.00 0.00 40 1019.0
20260905135032 72 270 18.0 0.0 0.00 0.00 0.00 40 1019.0
20260905134609 72 270 18.0 0.0 0.00 0.00 0.00 40 1019.0
20260905134210 72 270 18.0 0.0 0.00 0.00 0.00 40 1019.0
20260905133811 72 270 18.0 0.0 0.00 0.00 0.00 40 1019.0
20260905133416 72 270 18.0 0.0 0.00 0.00 0.00 40 1019.0
20260905133109 72 270 18.0 0.0 0.00 0.00 0.00 40 1019.0
20260905132213 70 290 16.0 0.0 0.00 0.00 0.00 43 1019.0
20260905132052 72 290 14.0 0.0 0.00 0.00 0.00 40
20260905131609 70 290 16.0 0.0 0.00 0.00 0.00 43 1019.0
20260905131110 70 290 16.0 0.0 0.00 0.00 0.00 43 1019.0
20260905130710 70 290 16.0 0.0 0.00 0.00 0.00 43 1019.0
20260905130211 70 290 16.0 0.0 0.00 0.00 0.00 43 1019.0
20260905125609 72 260 17.0 0.0 0.00 0.00 0.00 40 1019.0
20260905125410 72 260 17.0 0.0 0.00 0.00 0.00 40 1019.0
20260905125210 72 260 17.0 0.0 0.00 0.00 0.00 40 1019.0
20260905124909 72 260 17.0 0.0 0.00 0.00 0.00 40 1019.0
20260905124531 72 260 17.0 0.0 0.00 0.00 0.00 40 1019.0
20260905124031 72 260 17.0 0.0 0.00 0.00 0.00 40 1019.0
20260905123610 72 260 17.0 0.0 0.00 0.00 0.00 40 1019.0
20260905123309 72 260 17.0 0.0 0.00 0.00 0.00 40 1019.0
20260905123110 72 260 17.0 0.0 0.00 0.00 0.00 40 1019.0
20260905122110 70 270 17.0 0.0 0.00 0.00 0.00 46 1019.0
20260905122003 72 260 18.0 0.0 0.00 0.00 0.00 40
20260905121714 70 270 17.0 0.0 0.00 0.00 0.00 46 1019.0
20260905121109 70 270 17.0 0.0 0.00 0.00 0.00 46 1019.0
20260905120525 70 270 17.0 0.0 0.00 0.00 0.00 46 1019.0